• MPC Preparation (Info)

  • MPEC 2023-F174 : 2023 FJ5

    The following Minor Planet Electronic Circular may be linked-to from your own Web pages, but must not otherwise be redistributed electronically.

    A form allowing access to any MPEC is at the bottom of this page.


    Read MPEC 2023-F173 Read MPEC 2023-F175


    M.P.E.C. 2023-F174                               Issued 2023 March 27, 21:36 UT
    
         The Minor Planet Electronic Circulars contain information on unusual
             minor planets, routine data on comets and natural satellites,
             and occasional editorial announcements.  They are published
        on behalf of Division F of the International Astronomical Union by the
              Minor Planet Center, Smithsonian Astrophysical Observatory,
                              Cambridge, MA 02138, U.S.A.
    			  
                 Prepared using the Tamkin Foundation Computer Network
    
                                  MPC@CFA.HARVARD.EDU
                URL https://www.minorplanetcenter.net/    ISSN 1523-6714
    
                                    2023 FJ5                                 
    
    
    Observations:
         K23F05J  C2023 03 16.39757512 46 48.990+15 08 45.09         22.17GVEF174F52
         K23F05J  C2023 03 16.40979812 46 50.305+15 08 53.50         22.42GVEF174F52
         K23F05J  C2023 03 16.42201412 46 51.621+15 09 02.06         22.82GVEF174F52
         K23F05J  C2023 03 16.43433012 46 52.972+15 09 10.97         22.34GVEF174F52
         K23F05J* C2023 03 19.56457612 53 08.381+15 42 21.29         22.86wUEF174F52
         K23F05J  C2023 03 19.57595512 53 09.560+15 42 27.60         22.43wUEF174F52
         K23F05J  C2023 03 19.58732912 53 10.727+15 42 34.14         22.30wUEF174F52
         K23F05J 3C2023 03 22.33818112 58 29.457+16 07 01.48         22.36GVEF174T14
         K23F05J 3C2023 03 22.33940112 58 29.579+16 07 02.18         22.37GVEF174T14
         K23F05J 3C2023 03 22.34061012 58 29.700+16 07 02.76         22.49GVEF174T14
         K23F05J 3C2023 03 22.34182312 58 29.822+16 07 03.46         22.21GVEF174T14
         K23F05J 3C2023 03 26.63019113 06 03.803+16 35 05.44         22.42GVEF174T14
         K23F05J 3C2023 03 26.63175013 06 03.949+16 35 05.75               VEF174T14
         K23F05J 3C2023 03 26.63330413 06 04.098+16 35 06.12         22.61GVEF174T14
         K23F05J KC2023 03 26.64177913 06 04.903+16 35 07.67         23.73GVEF174F51
    
    Observer details:
    F51 Pan-STARRS 1, Haleakala.  Observers J. Bulger, K. Chambers, T. Lowe, A.
        Schultz, I. Smith.  Measurers S. Chastel, J. Fairlamb, M. Huber, Y.
        Ramanjooloo, R. Wainscoat, R. Weryk.  1.8-m Ritchey-Chretien + CCD.
    F52 Pan-STARRS 2, Haleakala.  Observers J. Bulger, K. Chambers, T. Dukes, T.
        Lowe, A. Schultz, I. Smith.  Measurers S. Chastel, J. Fairlamb, M. Huber,
        Y. Ramanjooloo, R. Wainscoat, R. Weryk, K. Chambers, T. de Boer, H. Gao,
        C.-C. Lin, E. Magnier.  1.8-m Ritchey-Chretien + CCD.
    T14 Canada-France-Hawaii Telescope, Maunakea.  Observers R. Wainscoat, A.
        Acohido, T. Burdullis.  Measurers R. Weryk, R. Wainscoat.  3.6-m Canada-
        France-Hawaii Telescope + CCD.
    
    Orbital elements:
    2023 FJ5                                                 Earth MOID = 0.2075 AU
    Epoch 2023 Feb. 25.0 TT = JDT 2460000.5                 Veres                   
    M 352.68382              (2000.0)            P               Q                  
    n   0.35723882     Peri.   41.28821     -0.99759484     -0.03574744             
    a   1.9671174      Node   136.55250     +0.01354465     -0.94077164             
    e   0.3933737      Incl.    4.95397     +0.06797855     -0.33715106             
    P   2.76           H   24.86          G   0.15           U   7                  
    Residuals in seconds of arc
    230316 F52  0.1+  0.2+    230319 F52  0.1+  0.0     230322 T14  0.0   0.0
    230316 F52  0.1-  0.1-    230319 F52  0.1-  0.4+    230326 T14  0.0   0.1+
    230316 F52  0.2-  0.3-    230322 T14  0.0   0.0     230326 T14  0.1+  0.0
    230316 F52  0.2+  0.1-    230322 T14  0.0   0.0     230326 T14  0.1+  0.0
    230319 F52  0.0   0.0     230322 T14  0.0   0.0     230326 F51  0.2-  0.0
    
    Ephemeris:
    2023 FJ5                 a,e,i = 1.97, 0.39, 5                   q = 1.1933
    Date    TT    R. A. (2000) Decl.     Delta      r    Elong.  Phase     V
    2023 02 25    12 02 53.1 +10 40 04   0.2355  1.2102   157.2    18.5    23.1
    ...
    2023 03 12    12 37 26.0 +14 14 30   0.2123  1.1945   159.5    16.9    22.8
    ...
    2023 03 20    12 54 00.6 +15 46 37   0.2095  1.1936   159.0    17.4    22.8
    ...
    2023 03 26    13 05 01.2 +16 31 55   0.2116  1.1963   158.2    18.1    22.8
    2023 03 27    13 06 43.7 +16 37 01   0.2122  1.1970   158.0    18.2    22.8
    2023 03 28    13 08 23.9 +16 41 22   0.2130  1.1978   157.8    18.3    22.8
    ...
    2023 04 03    13 17 39.8 +16 51 32   0.2194  1.2044   156.8    19.1    22.9
    ...
    2023 04 11    13 28 04.3 +16 22 46   0.2328  1.2174   155.4    20.0    23.1
    ...
    2023 04 26    13 43 03.7 +13 35 12   0.2731  1.2542   152.2    21.9    23.6
    
    M. P. C. Staff               (C) Copyright 2023 MPC           M.P.E.C. 2023-F174
    


    Read MPEC 2023-F173 Read MPEC 2023-F175


    MPEC number:

    Enter an MPEC number in one of the following forms:

    • 1997-B01 (the full form)
    • J97B01 (the packed version of the full form)
    • B01 (the abbreviated form)